TimeCST,TemperatureF,Dew PointF,Humidity,Sea Level PressureIn,VisibilityMPH,Wind Direction,Wind SpeedMPH,Gust SpeedMPH,PrecipitationIn,Events,Conditions,WindDirDegrees,DateUTC
12:15 AM,24.8,17.6,74,30.36,10.0,NNW,6.9,-,N/A,,Clear,330,2012-11-27 06:15:00
12:35 AM,24.8,17.6,74,30.36,10.0,NNW,8.1,-,N/A,,Clear,330,2012-11-27 06:35:00
12:55 AM,24.8,17.6,74,30.35,10.0,NNW,9.2,-,N/A,,Clear,330,2012-11-27 06:55:00
1:15 AM,24.8,17.6,74,30.35,10.0,NNW,8.1,-,N/A,,Clear,340,2012-11-27 07:15:00
1:35 AM,23.0,17.6,80,30.36,10.0,NNW,8.1,-,N/A,,Clear,340,2012-11-27 07:35:00
1:55 AM,23.0,17.6,80,30.36,10.0,NNW,8.1,-,N/A,,Clear,340,2012-11-27 07:55:00
2:15 AM,21.2,17.6,86,30.36,10.0,NNW,6.9,-,N/A,,Clear,340,2012-11-27 08:15:00
2:35 AM,21.2,17.6,86,30.37,10.0,NNW,8.1,-,N/A,,Clear,330,2012-11-27 08:35:00
2:55 AM,21.2,17.6,86,30.36,10.0,NNW,8.1,-,N/A,,Clear,340,2012-11-27 08:55:00
3:15 AM,21.2,17.6,86,30.35,10.0,North,8.1,-,N/A,,Clear,350,2012-11-27 09:15:00
3:35 AM,21.2,17.6,86,30.36,10.0,NNW,6.9,-,N/A,,Clear,340,2012-11-27 09:35:00
3:55 AM,19.4,17.6,93,30.36,10.0,NNW,6.9,-,N/A,,Clear,340,2012-11-27 09:55:00
4:15 AM,19.4,17.6,93,30.35,10.0,North,8.1,-,N/A,,Clear,350,2012-11-27 10:15:00
4:35 AM,19.4,17.6,93,30.35,10.0,North,6.9,-,N/A,,Clear,350,2012-11-27 10:35:00
4:55 AM,19.4,15.8,86,30.35,10.0,North,6.9,-,N/A,,Clear,350,2012-11-27 10:55:00
5:15 AM,19.4,15.8,86,30.36,10.0,NNW,6.9,-,N/A,,Clear,340,2012-11-27 11:15:00
5:35 AM,19.4,15.8,86,30.38,10.0,NNW,4.6,-,N/A,,Clear,330,2012-11-27 11:35:00
5:55 AM,17.6,15.8,93,30.38,10.0,NNW,6.9,-,N/A,,Clear,330,2012-11-27 11:55:00
6:15 AM,19.4,15.8,86,30.39,10.0,NW,5.8,-,N/A,,Clear,320,2012-11-27 12:15:00
6:35 AM,19.4,15.8,86,30.39,10.0,NNW,6.9,-,N/A,,Clear,330,2012-11-27 12:35:00
6:55 AM,19.4,15.8,86,30.40,10.0,NNW,5.8,-,N/A,,Clear,330,2012-11-27 12:55:00
7:15 AM,19.4,15.8,86,30.41,10.0,NNW,4.6,-,N/A,,Clear,340,2012-11-27 13:15:00
7:35 AM,19.4,15.8,86,30.42,10.0,NNW,4.6,-,N/A,,Clear,340,2012-11-27 13:35:00
7:55 AM,21.2,17.6,86,30.42,10.0,North,6.9,-,N/A,,Clear,350,2012-11-27 13:55:00
8:15 AM,21.2,17.6,86,30.42,10.0,North,9.2,-,N/A,,Clear,350,2012-11-27 14:15:00
8:35 AM,23.0,17.6,80,30.42,10.0,North,8.1,-,N/A,,Clear,360,2012-11-27 14:35:00
8:55 AM,24.8,17.6,74,30.42,10.0,North,5.8,-,N/A,,Clear,10,2012-11-27 14:55:00
9:15 AM,24.8,17.6,74,30.43,10.0,Calm,Calm,-,N/A,,Clear,0,2012-11-27 15:15:00
9:35 AM,26.6,17.6,69,30.44,10.0,Calm,Calm,-,N/A,,Clear,0,2012-11-27 15:35:00
9:55 AM,26.6,17.6,69,30.44,10.0,Calm,Calm,-,N/A,,Clear,0,2012-11-27 15:55:00
10:15 AM,28.4,19.4,69,30.44,10.0,Calm,Calm,-,N/A,,Clear,0,2012-11-27 16:15:00
10:35 AM,30.2,19.4,64,30.43,10.0,Calm,Calm,-,N/A,,Clear,0,2012-11-27 16:35:00
10:55 AM,32.0,19.4,60,30.43,10.0,Calm,Calm,-,N/A,,Clear,0,2012-11-27 16:55:00
11:15 AM,32.0,19.4,60,30.42,10.0,NNW,3.5,-,N/A,,Clear,330,2012-11-27 17:15:00
11:35 AM,33.8,17.6,52,30.41,10.0,North,3.5,-,N/A,,Clear,350,2012-11-27 17:35:00
11:55 AM,33.8,17.6,52,30.39,10.0,Calm,Calm,-,N/A,,Clear,0,2012-11-27 17:55:00
12:15 PM,35.6,15.8,44,30.39,10.0,WSW,4.6,-,N/A,,Clear,240,2012-11-27 18:15:00
12:35 PM,35.6,15.8,44,30.37,10.0,West,4.6,-,N/A,,Clear,270,2012-11-27 18:35:00
12:55 PM,37.4,15.8,41,30.36,10.0,SW,4.6,-,N/A,,Clear,230,2012-11-27 18:55:00
1:15 PM,37.4,15.8,41,30.35,10.0,Calm,Calm,-,N/A,,Clear,0,2012-11-27 19:15:00
1:35 PM,37.4,17.6,45,30.35,10.0,West,4.6,-,N/A,,Clear,270,2012-11-27 19:35:00
1:55 PM,37.4,17.6,45,30.33,10.0,West,6.9,-,N/A,,Clear,280,2012-11-27 19:55:00
2:15 PM,37.4,15.8,41,30.33,10.0,West,4.6,-,N/A,,Clear,260,2012-11-27 20:15:00
2:35 PM,37.4,15.8,41,30.32,10.0,SW,5.8,-,N/A,,Clear,230,2012-11-27 20:35:00
2:55 PM,37.4,15.8,41,30.32,10.0,West,6.9,-,N/A,,Clear,260,2012-11-27 20:55:00
3:15 PM,35.6,15.8,44,30.32,10.0,West,5.8,-,N/A,,Clear,260,2012-11-27 21:15:00
3:35 PM,35.6,17.6,48,30.32,10.0,SW,5.8,-,N/A,,Clear,230,2012-11-27 21:35:00
3:55 PM,35.6,17.6,48,30.32,10.0,SW,4.6,-,N/A,,Clear,220,2012-11-27 21:55:00
4:15 PM,33.8,17.6,52,30.32,10.0,Calm,Calm,-,N/A,,Clear,0,2012-11-27 22:15:00
4:35 PM,30.2,17.6,60,30.31,10.0,SSW,4.6,-,N/A,,Clear,210,2012-11-27 22:35:00
4:55 PM,30.2,17.6,60,30.32,10.0,SW,4.6,-,N/A,,Clear,220,2012-11-27 22:55:00
5:15 PM,30.2,19.4,64,30.31,10.0,South,3.5,-,N/A,,Clear,180,2012-11-27 23:15:00
5:35 PM,28.4,17.6,64,30.31,10.0,SSW,4.6,-,N/A,,Clear,200,2012-11-27 23:35:00
5:55 PM,28.4,19.4,69,30.32,10.0,SW,3.5,-,N/A,,Clear,220,2012-11-27 23:55:00
6:15 PM,28.4,19.4,69,30.31,10.0,South,3.5,-,N/A,,Clear,190,2012-11-28 00:15:00
6:35 PM,26.6,19.4,74,30.32,10.0,Calm,Calm,-,N/A,,Clear,0,2012-11-28 00:35:00
6:55 PM,26.6,19.4,74,30.32,10.0,Calm,Calm,-,N/A,,Clear,0,2012-11-28 00:55:00
7:15 PM,26.6,17.6,69,30.32,10.0,SSW,3.5,-,N/A,,Clear,210,2012-11-28 01:15:00
7:35 PM,24.8,19.4,80,30.32,7.0,South,3.5,-,N/A,,Clear,190,2012-11-28 01:35:00
7:55 PM,26.6,19.4,74,30.32,10.0,South,4.6,-,N/A,,Clear,180,2012-11-28 01:55:00
8:15 PM,24.8,17.6,74,30.32,10.0,South,3.5,-,N/A,,Clear,190,2012-11-28 02:15:00
8:35 PM,24.8,17.6,74,30.32,10.0,South,4.6,-,N/A,,Clear,170,2012-11-28 02:35:00
8:55 PM,24.8,19.4,80,30.31,10.0,South,5.8,-,N/A,,Clear,190,2012-11-28 02:55:00
9:15 PM,24.8,19.4,80,30.32,10.0,SSW,4.6,-,N/A,,Clear,210,2012-11-28 03:15:00
9:35 PM,24.8,21.2,86,30.32,10.0,SSW,5.8,-,N/A,,Clear,210,2012-11-28 03:35:00
9:55 PM,24.8,19.4,80,30.32,10.0,SSW,5.8,-,N/A,,Clear,200,2012-11-28 03:55:00
10:15 PM,24.8,19.4,80,30.32,10.0,SSW,5.8,-,N/A,,Clear,210,2012-11-28 04:15:00
10:35 PM,24.8,19.4,80,30.32,10.0,SSW,5.8,-,N/A,,Clear,200,2012-11-28 04:35:00
10:55 PM,24.8,19.4,80,30.32,10.0,SSW,5.8,-,N/A,,Clear,210,2012-11-28 04:55:00
11:15 PM,24.8,19.4,80,30.32,10.0,SW,4.6,-,N/A,,Clear,220,2012-11-28 05:15:00
11:35 PM,24.8,19.4,80,30.32,10.0,SSW,5.8,-,N/A,,Clear,210,2012-11-28 05:35:00
11:55 PM,24.8,19.4,80,30.32,10.0,SSW,8.1,-,N/A,,Clear,200,2012-11-28 05:55:00